Theta_e
338 347 349 350 349 347 349 351 353 354 354 353 352 352 352 353 352 351 349 350 350 349 349 349 349 352 352 352 352 349 349 350 351 351 351 349 350 349 347 349 350 347 350
343 348 348 349 348 346 347 349 351 353 354 354 352 352 352 353 352 351 350 349 350 350 350 350 348 349 350 352 351 351 350 349 349 349 349 349 350 350 349 349 348 347 349
346 349 348 349 348 346 345 347 349 351 353 353 353 352 352 351 351 351 350 349 349 350 350 350 349 348 348 348 349 350 349 348 348 347 348 347 343 351 350 348 346 350 349
345 349 351 349 348 347 345 344 346 348 349 349 350 351 351 351 350 349 348 347 348 348 349 350 349 348 347 345 345 347 348 348 348 348 341 342 341 350 349 347 345 349 348
349 354 351 348 349 348 346 345 344 345 346 347 347 347 347 347 347 347 347 346 346 346 347 347 347 346 347 345 343 343 346 347 347 346 337 339 340 348 348 347 346 347 350
349 350 346 346 349 350 348 347 346 346 345 346 346 346 346 346 346 347 348 347 346 346 347 348 348 348 348 345 343 342 343 344 344 338 335 341 339 347 348 348 347 348 348
344 349 349 344 346 347 347 348 347 346 346 345 345 345 347 348 348 350 350 350 348 347 347 348 349 349 347 345 344 340 340 340 338 334 334 335 340 351 349 348 347 346 347
346 346 347 346 346 345 345 345 346 347 346 345 345 345 345 346 347 349 349 349 349 348 348 348 348 347 346 345 344 341 338 337 335 333 333 334 343 350 349 351 348 345 346
328 331 337 339 346 342 339 341 342 345 345 345 346 345 345 344 344 344 345 347 348 347 346 346 345 344 344 344 343 340 337 337 334 331 334 335 346 347 346 346 347 348 345
324 324 327 329 326 328 329 337 341 341 343 343 343 342 342 343 343 343 342 342 343 344 345 345 343 342 342 341 340 340 338 337 336 332 331 336 347 348 346 347 346 345 347
320 322 324 322 323 325 324 326 330 331 333 331 330 332 331 333 338 341 341 341 341 340 342 343 342 340 339 339 339 339 338 339 335 334 333 334 345 347 345 345 345 345 346
316 317 320 322 321 321 319 324 325 323 323 323 324 325 324 329 330 330 335 338 337 338 339 340 340 339 339 341 340 338 341 340 336 333 333 335 341 348 347 345 344 345 344
317 317 317 321 325 321 318 319 318 318 321 321 324 324 325 323 324 323 325 326 328 332 334 331 329 338 341 341 341 341 340 340 338 336 331 334 341 346 347 345 344 345 343
316 317 318 319 321 323 320 318 318 318 318 319 319 325 323 320 321 321 320 319 322 323 330 326 323 322 323 329 339 342 342 340 340 339 336 332 336 343 347 347 345 345 344
315 318 318 319 320 320 321 319 318 319 318 319 318 319 320 317 318 317 318 317 318 318 319 319 318 323 321 323 323 334 339 339 341 341 340 333 331 337 342 345 344 344 344
315 316 319 318 319 319 319 320 318 318 318 316 316 316 318 316 317 313 313 313 315 317 317 316 316 317 322 323 320 321 326 339 338 340 338 341 329 332 337 341 343 344 345
314 316 317 317 318 318 318 317 317 316 316 314 314 318 315 315 313 312 310 310 312 313 314 316 316 315 315 315 318 318 319 322 334 336 336 339 338 328 331 336 339 341 343
314 315 316 316 316 316 317 316 315 315 314 313 313 313 314 312 311 309 307 306 306 306 308 310 312 310 311 312 313 315 316 317 320 326 336 337 338 339 331 331 334 337 338
314 314 314 315 313 313 314 313 313 314 312 312 312 310 309 308 308 305 303 303 303 303 303 303 303 303 305 306 308 311 314 315 315 320 323 334 335 337 338 332 329 331 333
312 312 313 312 311 310 310 311 310 309 309 310 308 306 306 305 304 302 301 300 300 300 299 299 299 300 300 302 303 304 310 314 317 317 321 328 335 337 338 337 337 333 328
311 310 310 309 307 307 306 305 304 304 306 305 305 305 304 301 299 298 297 297 296 295 296 296 295 296 297 299 299 300 303 308 312 315 323 327 331 334 335 337 338 339 334
308 308 307 306 305 304 304 304 303 303 303 303 302 302 300 298 296 295 294 293 293 293 294 293 293 292 293 295 294 295 298 303 309 315 321 323 329 333 333 336 336 338 340
305 305 304 304 304 302 301 301 301 301 300 298 298 297 296 295 294 293 292 292 293 292 292 291 292 290 288 290 293 291 291 294 293 305 312 315 329 331 334 335 335 339 341
304 305 305 303 302 300 299 298 297 295 294 295 295 294 294 293 293 293 293 293 292 292 291 290 291 291 290 287 289 292 291 291 289 291 303 307 313 320 332 335 334 335 338
304 303 301 300 299 298 297 295 294 293 294 294 294 292 291 292 292 292 293 293 292 291 290 290 291 291 290 289 288 288 288 290 291 290 291 301 311 321 329 333 334 332 335
302 300 300 299 297 296 296 295 293 292 293 292 292 291 289 290 291 291 291 292 292 291 290 291 290 289 289 289 289 289 287 285 286 287 288 290 294 308 326 321 309 309 312
Wind_Speed
17 15 12 10 10 9 10 11 10 8 6 5 5 5 5 4 3 3 3 3 2 1 1 2 3 2 1 1 1 1 2 3 3 3 4 5 6 6 6 5 6 10 8
16 14 10 10 9 8 8 9 9 7 6 5 6 6 6 6 5 5 4 4 3 2 1 0 2 4 3 2 2 1 0 0 1 1 2 4 4 7 7 7 4 4 9
15 12 12 9 9 8 7 6 6 6 6 5 5 6 6 5 5 5 4 4 4 4 3 3 3 3 5 5 4 2 2 2 3 3 6 10 11 9 6 5 1 9 9
12 11 13 9 8 8 8 6 5 4 4 2 3 5 5 6 5 5 6 6 6 5 5 5 5 5 4 3 4 5 5 5 5 5 9 12 9 15 10 6 2 6 9
15 15 11 10 10 10 9 8 6 5 3 2 1 2 3 4 5 5 6 7 7 7 7 7 6 5 4 4 4 5 5 6 6 8 13 12 5 16 14 9 8 5 6
14 14 12 11 10 10 11 10 9 8 7 6 6 5 4 5 6 7 8 8 9 9 10 9 8 6 6 6 5 5 6 6 6 12 13 6 6 20 15 11 8 5 9
15 13 14 10 11 13 14 12 11 10 9 8 9 9 9 10 9 8 9 10 11 12 12 11 10 9 9 9 8 8 7 7 10 12 14 12 10 13 12 11 8 5 5
17 15 13 13 11 12 14 13 11 10 11 10 10 10 11 11 11 11 11 10 11 12 13 14 14 13 12 12 12 11 10 9 10 13 15 11 8 18 14 10 10 9 7
21 19 16 17 13 12 13 9 9 8 7 8 9 9 11 11 13 13 13 13 14 15 14 14 15 13 14 14 15 14 13 13 11 10 12 10 14 16 15 12 9 10 11
20 20 17 16 16 13 14 9 5 7 7 9 10 11 12 14 15 16 14 15 16 17 16 16 13 14 14 12 12 13 15 15 14 13 12 10 17 14 12 11 11 11 13
17 19 18 19 17 15 14 12 11 13 13 14 16 18 16 13 13 15 12 14 17 13 14 14 14 15 14 15 15 14 12 11 14 11 10 15 12 16 15 13 12 13 13
20 20 18 18 18 16 13 13 13 12 12 12 14 16 13 14 14 17 12 9 13 16 18 17 18 19 16 13 10 19 11 14 12 11 10 18 16 17 16 15 14 15 14
19 17 20 17 16 17 14 11 9 8 9 9 13 14 13 12 11 11 10 11 11 11 7 10 13 11 15 13 13 12 13 15 11 10 15 18 21 21 20 19 18 17 17
19 19 19 19 16 15 11 11 12 11 10 10 12 14 11 9 12 12 10 14 12 12 10 12 7 11 15 19 15 16 16 11 10 9 12 14 19 26 25 24 23 22 21
17 17 18 17 16 15 13 12 10 10 10 11 12 14 13 14 12 13 13 13 13 14 13 13 12 12 10 11 14 19 17 16 16 9 8 15 17 21 26 27 26 25 24
17 17 16 16 16 16 13 14 11 10 12 12 11 13 15 13 12 13 14 14 14 14 15 15 15 14 10 7 10 14 18 17 17 16 12 12 17 18 22 26 28 28 27
15 17 16 16 18 17 15 14 11 11 12 12 12 13 16 15 15 16 14 14 15 15 19 15 15 15 14 13 12 9 10 15 16 19 15 13 11 18 21 23 26 28 28
16 16 16 16 19 19 16 13 12 12 12 11 11 12 18 18 18 16 13 14 16 15 15 15 15 16 16 16 14 14 9 10 14 17 17 14 12 14 18 25 26 26 28
18 18 18 16 18 19 17 14 14 15 13 13 13 13 17 17 19 16 13 11 14 13 13 13 14 14 15 15 16 16 16 14 12 12 18 18 18 16 12 17 29 29 29
17 16 16 16 19 17 13 12 11 11 12 11 12 13 17 15 19 14 12 15 13 13 11 12 14 12 12 13 14 17 16 15 13 11 14 15 15 16 17 18 13 16 27
15 16 19 18 16 14 13 13 12 13 12 11 11 16 17 17 17 17 13 15 14 12 13 14 13 14 11 12 13 14 15 19 18 15 13 13 15 15 17 16 15 12 13
17 18 17 16 17 14 13 12 12 12 11 11 12 14 17 17 16 15 16 14 15 12 14 16 16 11 11 11 9 11 12 16 11 10 12 15 18 14 15 17 19 20 15
16 16 14 15 18 16 18 13 12 12 11 11 12 12 14 16 16 15 17 15 14 13 11 13 13 16 12 12 12 7 7 8 15 11 18 15 14 12 14 16 19 19 16
13 14 17 17 17 16 17 15 17 13 13 13 13 13 13 16 16 16 15 14 14 11 13 12 12 11 11 12 11 7 10 11 6 11 11 17 16 12 14 12 13 14 15
15 15 15 14 16 15 15 14 13 14 11 11 11 15 15 13 14 15 16 16 14 10 13 14 14 12 9 10 9 10 11 9 13 9 12 13 13 11 8 11 11 9 10
12 14 12 15 14 15 13 14 14 15 14 12 13 10 11 11 11 16 20 16 14 14 15 13 14 15 13 12 10 10 9 7 9 8 9 12 15 14 9 7 9 9 9
Wind_Direction
76 106 97 86 72 68 61 53 51 55 80 110 120 131 141 143 140 139 133 147 163 168 54 23 8 17 21 35 80 90 77 61 50 73 110 132 133 137 146 175 192 169 114
83 102 92 93 91 92 95 92 79 69 79 105 132 150 156 158 165 169 167 185 216 254 258 2 327 330 337 0 31 52 144 141 146 133 173 166 164 169 171 215 288 127 133
74 105 94 73 77 71 66 63 74 100 119 124 142 150 161 173 179 186 192 219 231 240 251 275 278 289 313 323 317 288 238 218 221 223 234 240 180 164 188 225 83 133 137
78 82 77 67 75 67 61 52 47 44 47 70 144 166 181 187 199 202 209 215 224 230 245 254 268 276 272 276 289 290 273 233 230 236 230 239 185 159 176 208 212 172 154
57 54 66 58 60 53 41 34 22 18 9 356 261 223 220 215 226 234 231 223 224 235 244 239 234 252 271 266 267 268 257 264 254 239 254 243 266 156 169 193 197 197 194
54 72 63 53 55 54 40 26 14 0 350 338 322 306 280 258 248 239 240 251 256 246 229 228 237 238 211 223 249 250 250 249 253 246 251 235 239 136 162 174 245 257 200
37 67 77 67 50 45 31 26 18 6 353 342 329 318 306 298 281 270 259 246 236 238 242 241 231 214 212 212 214 228 238 239 249 252 247 253 181 153 165 178 203 236 211
57 50 53 105 85 64 39 19 11 8 358 345 333 321 309 301 295 286 276 271 268 261 251 236 221 219 214 213 206 207 217 230 238 243 272 272 173 158 170 185 192 210 211
60 57 40 44 93 98 63 42 34 21 360 342 327 317 312 297 283 273 268 265 263 257 256 255 262 247 230 213 205 204 201 202 242 256 261 259 146 159 170 182 204 207 213
59 42 47 44 39 44 41 47 41 16 344 325 320 345 305 276 272 267 264 259 249 251 253 259 262 258 254 249 247 228 205 198 215 233 248 262 152 168 175 193 207 220 215
53 55 40 35 26 28 33 35 28 24 28 24 11 358 334 355 341 340 332 344 321 283 263 260 264 260 256 251 235 231 238 233 216 214 221 229 186 171 178 191 216 227 224
48 44 48 36 24 14 28 17 18 26 15 16 16 3 354 348 347 329 330 317 355 342 318 276 254 245 245 252 246 221 224 238 240 233 213 203 200 190 189 194 209 225 222
40 41 36 35 28 15 15 10 17 15 5 4 14 14 360 348 353 343 327 338 325 328 344 348 334 310 269 247 241 242 209 224 234 235 238 198 183 191 196 199 206 222 226
40 30 30 29 19 18 8 9 1 1 4 356 4 13 0 354 352 345 337 330 321 323 349 329 321 319 325 334 272 261 260 260 214 228 240 226 197 189 196 201 206 213 221
36 34 21 28 15 10 3 357 358 9 0 348 2 7 8 353 352 341 337 323 329 323 327 325 313 312 312 312 316 304 256 245 252 262 235 217 211 211 204 204 208 212 216
29 26 18 16 14 2 5 353 345 18 342 351 1 360 16 351 353 343 333 336 329 340 337 311 313 311 305 292 308 305 321 277 259 249 246 251 204 206 214 212 211 211 213
26 18 13 8 14 358 1 347 346 15 341 352 358 353 10 353 353 343 339 334 341 340 318 315 319 317 315 308 299 301 297 303 297 257 253 257 243 205 207 220 222 217 216
23 15 11 12 9 354 357 351 350 360 340 350 351 354 6 346 355 347 340 342 342 329 321 327 330 335 324 316 315 304 284 287 283 303 257 238 238 250 212 215 221 227 221
25 13 8 11 11 357 351 354 355 348 344 348 358 13 357 348 353 354 339 339 335 333 339 332 329 325 323 317 312 311 303 290 281 284 288 254 238 241 247 220 218 222 223
22 10 5 13 16 355 352 352 350 345 344 349 359 4 356 359 355 345 343 345 344 343 332 334 324 328 313 313 314 303 285 279 271 260 268 275 265 244 243 241 234 224 226
19 11 27 11 19 357 354 352 350 346 349 1 0 357 359 2 356 349 350 347 343 340 332 336 328 324 324 323 315 313 297 282 260 255 255 249 254 256 244 237 238 236 212
22 18 26 9 10 5 358 354 348 344 350 5 358 358 1 360 356 353 349 343 342 336 337 341 335 332 324 331 318 302 310 318 288 304 248 237 236 241 243 240 236 238 236
20 21 15 7 17 14 6 357 353 353 355 359 356 1 352 358 356 354 350 344 338 341 335 336 333 336 328 330 332 315 315 307 338 307 312 310 287 251 236 234 233 234 232
18 22 20 17 14 11 12 1 0 355 358 355 357 358 354 357 358 354 347 346 348 343 337 336 335 333 330 327 330 326 310 296 305 312 304 312 303 287 263 244 238 237 236
16 25 20 7 13 12 10 11 3 357 353 347 359 359 351 1 353 354 349 344 346 349 342 338 336 340 336 324 324 323 315 308 263 281 294 303 298 281 278 261 243 238 258
37 26 1 7 12 10 1 17 6 356 348 347 359 7 356 353 351 357 349 343 346 354 346 346 342 345 345 332 332 330 323 316 312 309 310 315 303 300 305 36 36 14 7